Air Resources Laboratory banner image
Air Resources Laboratory web site National Oceanic and Atmospheric Administration (NOAA)

ok roundup


Office: OUN

ASUS44 KOUN 151500
RWROK

WEATHER ROUNDUP FOR OKLAHOMA
NATIONAL WEATHER SERVICE NORMAN OK
900 AM CST FRI DEC 15 2017

NOTE: "FAIR" INDICATES FEW OR NO CLOUDS BELOW 12,000 FEET WITH NO
      SIGNIFICANT WEATHER AND/OR OBSTRUCTIONS TO VISIBILITY.

OKZ001>007-009>012-014-015-017-151600-
NORTHWEST OKLAHOMA AND THE PANHANDLE

CITY           SKY/WX    TMP DP  RH WIND       PRES   REMARKS
GAGE           MOSUNNY   25  20  81 SW12      30.24F WCI  14
GUYMON         CLOUDY    29  25  85 SW13      30.19F WCI  19
ENID/WOODRING  SUNNY     30  27  86 SW7       30.26S WCI  23
$$

OKZ016-021>023-033>039-044-045-151600-
SOUTHWEST OKLAHOMA

CITY           SKY/WX    TMP DP  RH WIND       PRES   REMARKS
LAWTON/REGL    SUNNY     32  27  81 W3        30.32S
LAWTON/FT SILL SUNNY     38  29  72 N6        30.30R WCI  33
FREDERICK      SUNNY     34  25  69 W7        30.30S WCI  28
CLINTON        SUNNY     32  23  69 W7        30.30S WCI  26
HOBART         SUNNY     31  24  75 NW6       30.32R WCI  25
ALTUS AFB      SUNNY     33  24  68 W7        30.33R WCI  27
$$

OKZ018>020-024>031-151600-
CENTRAL OKLAHOMA

CITY           SKY/WX    TMP DP  RH WIND       PRES   REMARKS
OKLAHOMA CITY  MOSUNNY   33  26  75 NW7       30.29S WCI  27
OKC/WILEY POST SUNNY     34  27  75 W7        30.29S WCI  28
OKC/TINKER AFB SUNNY     35  26  70 NW7       30.27S WCI  29
STILLWATER     SUNNY     33  27  78 W5        30.27S WCI  29
GUTHRIE        SUNNY     30  25  81 W3        30.29R
$$

OKZ008-013-054>072-151600-
NORTHEAST OKLAHOMA

CITY           SKY/WX    TMP DP  RH WIND       PRES   REMARKS
TULSA          MOSUNNY   37  33  85 W7        30.27S WCI  32
TULSA/JONES    MOSUNNY   38  31  76 NW9       30.27S WCI  31
PONCA CITY     SUNNY     30  25  81 SW3       30.25F
BARTLESVILLE   SUNNY     37  30  75 VRB3      30.26S
MUSKOGEE       SUNNY     38  34  85 NW10      30.28R WCI  31
$$

OKZ032-040>043-046>053-073>077-151600-
SOUTH CENTRAL/SOUTHEAST OKLAHOMA

CITY           SKY/WX    TMP DP  RH WIND       PRES   REMARKS
MCALESTER      SUNNY     38  33  82 NW7       30.27R WCI  33
$$



ASUS44 KOUN 151510
RWROK

WEATHER ROUNDUP FOR OKLAHOMA
NATIONAL WEATHER SERVICE NORMAN OK
900 AM CST FRI DEC 15 2017

NOTE: "FAIR" INDICATES FEW OR NO CLOUDS BELOW 12,000 FEET WITH NO
      SIGNIFICANT WEATHER AND/OR OBSTRUCTIONS TO VISIBILITY.

OKZ001>007-009>012-014-015-017-151600-
NORTHWEST OKLAHOMA AND THE PANHANDLE

CITY           SKY/WX    TMP DP  RH WIND       PRES   REMARKS
GAGE           MOSUNNY   25  20  81 SW12      30.24F WCI  14
GUYMON         CLOUDY    29  25  85 SW13      30.19F WCI  19
ENID/WOODRING  SUNNY     30  27  86 SW7       30.26S WCI  23
$$

OKZ016-021>023-033>039-044-045-151600-
SOUTHWEST OKLAHOMA

CITY           SKY/WX    TMP DP  RH WIND       PRES   REMARKS
LAWTON/REGL    SUNNY     32  27  81 W3        30.32S
LAWTON/FT SILL SUNNY     38  29  72 N6        30.30R WCI  33
FREDERICK      SUNNY     34  25  69 W7        30.30S WCI  28
CLINTON        SUNNY     32  23  69 W7        30.30S WCI  26
HOBART         SUNNY     31  24  75 NW6       30.32R WCI  25
ALTUS AFB      SUNNY     33  24  68 W7        30.33R WCI  27
$$

OKZ018>020-024>031-151600-
CENTRAL OKLAHOMA

CITY           SKY/WX    TMP DP  RH WIND       PRES   REMARKS
OKLAHOMA CITY  MOSUNNY   33  26  75 NW7       30.29S WCI  27
OKC/WILEY POST SUNNY     34  27  75 W7        30.29S WCI  28
OKC/TINKER AFB SUNNY     35  26  70 NW7       30.27S WCI  29
STILLWATER     SUNNY     33  27  78 W5        30.27S WCI  29
GUTHRIE        SUNNY     30  25  81 W3        30.29R
$$

OKZ008-013-054>072-151600-
NORTHEAST OKLAHOMA

CITY           SKY/WX    TMP DP  RH WIND       PRES   REMARKS
TULSA          MOSUNNY   37  33  85 W7        30.27S WCI  32
TULSA/JONES    MOSUNNY   38  31  76 NW9       30.27S WCI  31
PONCA CITY     SUNNY     30  25  81 SW3       30.25F
BARTLESVILLE   SUNNY     37  30  75 VRB3      30.26S
MUSKOGEE       SUNNY     38  34  85 NW10      30.28R WCI  31
$$

OKZ032-040>043-046>053-073>077-151600-
SOUTH CENTRAL/SOUTHEAST OKLAHOMA

CITY           SKY/WX    TMP DP  RH WIND       PRES   REMARKS
ARDMORE/DWNTWN SUNNY     37  30  75 CALM      30.31R
MCALESTER      SUNNY     38  33  82 NW7       30.27R WCI  33
$$